Regional Weather Roundup
Issued by NWS

Home | Current Version | Previous Version | Graphics & Text | Print | Product List | Glossary Off
Versions: 1 2 3 4 5 6 7 8 9 10 11 12 13 14 15 16 17 18 19 20 21 22 23 24 25 26 27 28 29 30 31 32 33 34 35 36 37 38 39 40 41 42 43 44 45 46 47 48 49 50

000
ASUS43 KTOP 282308
RWRKS

WEATHER ROUNDUP FOR KANSAS
NATIONAL WEATHER SERVICE GOODLAND KS
600 PM CDT SAT MAY 28 2016

NOTE:  "FAIR" INDICATES FEW OR NO CLOUDS BELOW 12,000 FEET WITH NO
SIGNIFICANT WEATHER AND/OR OBSTRUCTIONS TO VISIBILITY.

KSZ001>006-013>018-027>032-041>047-290000-
NORTHWEST KANSAS

CITY           SKY/WX    TMP DP  RH WIND       PRES   REMARKS
GOODLAND       SUNNY     75  43  31 W7        29.98S
HAYS           SUNNY     75  52  43 NW6       29.95S
HILL CITY      MOSUNNY   79  48  33 CALM      29.94S
RUSSELL        SUNNY     76  53  44 W9        29.94R
$$

KSZ061>065-074>080-084>089-290000-
SOUTHWEST KANSAS

CITY           SKY/WX    TMP DP  RH WIND       PRES   REMARKS
DODGE CITY     SUNNY     78  47  33 CALM      29.98R
ELKHART          N/A     80  46  30 S10         N/A
GARDEN CITY    SUNNY     78  41  26 W7        29.98S
GREAT BEND     SUNNY     75  55  50 NW6       29.95S
LIBERAL        SUNNY     81  45  28 W9        29.99S
PRATT          MOSUNNY   76  49  39 NW5       29.96S
$$

KSZ066>073-081>083-090>101-290000-
SOUTHEAST KANSAS

CITY           SKY/WX    TMP DP  RH WIND       PRES   REMARKS
CHANUTE        MOSUNNY   79  60  52 SW10      29.94S
COFFEYVILLE    MOSUNNY   79  59  50 W7        29.94S
HUTCHINSON     MOSUNNY   80  56  43 W7        29.94S
MEDICINE LODGE   N/A     83  49  30 NW6       29.94S
NEWTON         PTSUNNY   75  55  50 SW6         N/A
PARSONS        MOSUNNY   80  60  50 SW9       29.96R
WICHITA INTL   MOSUNNY   82  55  39 W10       29.94R
WICHITA JABRA  MOSUNNY   79  56  45 W8        29.94S
WICHITA MCCONL SUNNY     79  55  42 SW7       29.94S
WINFIELD       SUNNY     82  57  42 CALM      29.95S
$$

KSZ007>012-019>026-033>040-048>060-102>105-290000-
NORTHEAST KANSAS

CITY           SKY/WX    TMP DP  RH WIND       PRES   REMARKS
CONCORDIA      MOSUNNY   76  54  46 SW10      29.91S
EMPORIA        MOSUNNY   77  58  51 W6        29.94R
LAWRENCE       PTSUNNY   77  59  53 SW10      29.92R
MANHATTAN      SUNNY     78  56  46 W9        29.91S
MARYSVILLE     MOSUNNY   77  59  53 W12G17    29.89S
OLATHE IND     MOSUNNY   76  58  53 SW12      29.93S
OLATHE EXE     MOSUNNY   75  57  53 SW9       29.93S
SALINA         MOSUNNY   78  56  46 W8        29.94R
TOPEKA BILLARD PTSUNNY   77  58  51 SW6       29.91S
TOPEKA FORBES  SUNNY     76  58  53 W10       29.92S
$$




USA.gov is the U.S. government's official web portal to all federal, state and local government web resources and services.